Flag for Germany Weather past 2 weeks in Radebeul, Saxony, Germany

Now
60 °F

Passing clouds.


Feels Like: 60 °F
Forecast: 51 / 70 °F
Wind: 1 mph from Northwest

Location: Dresden-Klotzsche

Current Time: Aug 21, 2014 at 10:09:28 PM

Latest Report: Aug 21, 2014 at 9:00 PM


Visibility: 31 mi

Pressure: 30.01 "Hg

Humidity: 58%

Dew point: 45 °F

Location of RadebeulLocation

Historic Weather in Radebeul — Graph

°F

Radebeul temperature yesterday

Maximum temperature yesterday: 64 °F (at 6:00 PM)
Minimum temperature yesterday: 50 °F (at 6:00 AM)
Average temperature yesterday: 57 °F

Past Weeks' High & Low Weather Summary

 TemperatureHumidityPressure
High85 °F (Aug 10, 6:00 PM)96% (Aug 8, 7:00 AM)30.03 "Hg (Aug 8, 7:00 AM)
Low50 °F (Aug 20, 6:00 AM)36% (Aug 12, 4:00 PM)29.65 "Hg (Aug 13, 7:00 PM)
Average64 °F68%29.89 "Hg
* Reported Aug 6 9:00 PM — Aug 21 9:00 PM, Radebeul, Weather by CustomWeather, © 2014

Note: Actual official high and low records may vary slightly from our data, if they occured in-between our weather recording intervals... More about our weather records

Advertising

Radebeul weather history for previous 24 hours

 ConditionsComfort  
Time TempWeatherWind HumidityBarometerVisibility
9:00 PM
Aug 21
60 °FPassing clouds.1 mph58%30.01 "Hg31 mi
8:00 PM63 °FPartly sunny.1 mph49%30.00 "Hg37 mi
7:00 PM64 °FScattered clouds.2 mph43%29.99 "Hg37 mi
6:00 PM65 °FPartly sunny.2 mph45%29.99 "Hg37 mi
4:00 PM65 °FScattered clouds.3 mph44%30.00 "Hg37 mi
3:00 PM63 °FOvercast.3 mph46%30.02 "Hg34 mi
2:00 PM65 °FPartly sunny.3 mph41%30.01 "Hg34 mi
1:00 PM66 °FPartly sunny.3 mph41%30.01 "Hg31 mi
12:00 PM64 °FPartly sunny.2 mph44%30.01 "Hg34 mi
10:00 AM60 °FPassing clouds.1 mph63%30.01 "Hg31 mi
9:00 AM56 °FPassing clouds.2 mph74%30.02 "Hg28 mi
8:00 AM52 °FPassing clouds.5 mph82%30.01 "Hg28 mi
7:00 AM50 °FScattered clouds.3 mph83%30.02 "Hg31 mi
6:00 AM51 °FOvercast.3 mph88%30.02 "Hg22 mi
5:00 AM51 °FOvercast.3 mph87%30.01 "Hg19 mi
4:00 AM51 °FOvercast.2 mph86%30.01 "Hg22 mi
3:00 AM52 °FOvercast.3 mph83%30.01 "Hg22 mi
2:00 AM53 °FOvercast.2 mph79%30.02 "Hg25 mi
1:00 AM53 °FOvercast.3 mph76%30.02 "Hg25 mi
12:00 AM54 °FOvercast.3 mph70%30.01 "Hg25 mi
10:00 PM
Aug 20
58 °FOvercast.1 mph55%30.01 "Hg28 mi
Weather by CustomWeather, © 2014

See weather overviewHow to use our weather pages